sat.trackr.live / text

‹ back to catalog

STARLINK-2105

NORAD 47385 · 2021-005AN

PAYLOAD ACTIVE UNKNOWN

§ Identity

Operator
Country
US
Launch date
2021-01-20
Launch site
AFETR
Launch vehicle
Mass (kg)
RCS (m²)

Purposes: comms

External: N2YO · Heavens-Above · Gunter

§ Orbital elements

Epoch: 2026-09-19T11:47:35.907648Z

Period
94.01 min
Inclination
53.1608°
Eccentricity
0.0001271
Mean motion
15.31700761 rev/d
Perigee alt
469.9 km
Apogee alt
471.6 km
Semi-major
6,848.9 km
B*
1.9735e-5
RAAN
215.1725°
Arg perigee
85.4951°
Mean anomaly
274.6195°
Rev number
31,307

§ Raw data

STARLINK-21051 47385U 21005AN  26262.49138782  .00000247  00000+0  19735-4 0  99962 47385  53.1608 215.1725 0001271  85.4951 274.6195 15.31700761313077

JSON: /api/v1/satellites/47385 · /tle

For live sub-satellite position, see the globe view (requires WebGL).

§ Visibility from observer

Set your observer location to see the next 7 days of passes ≥ 10°. The values pass through the URL so the page stays shareable.

No JS? Fill the form by hand. The geolocation button needs JavaScript.